カタログに戻る

COSMOS 2251 DEB

運用中LEO
NORAD 35956·DEBRIS·🇷🇺 Russia

打ち上げ Jun 16, 1993 から Plesetsk Cosmodrome

Loading…

次のパス (今後24時間)

TLE

最新Source: Space-Track

元期: Sep 14, 2026, 01:50 UTC

1 35956U 93036AUW 26257.07705254  .00005106  00000-0  22064-2 0  9999
2 35956  74.0741 128.8273 0225117 139.7140 222.0929 14.11961203657447

AllMySatでCOSMOS 2251 DEBをリアルタイム追跡

Download on the App Store